This is the latest recevied weather packets stored in our database for station/object DL6MM-4. If no packets are shown the sender has not sent any weather packets the latest 10 day(s).
| Time | Temp. | Humidity | Pressure | Rain* | Wind** | Luminosity | Snow |
|---|---|---|---|---|---|---|---|
| 1777624755 | 16.67° C | 48% | 1027.5 hPa | 0 mm | - | - | - |
| 1777624155 | 16.11° C | 49% | 1027.5 hPa | 0 mm | - | - | - |
| 1777623555 | 16.11° C | 48% | 1027.5 hPa | 0 mm | - | - | - |
| 1777622955 | 16.11° C | 49% | 1027.7 hPa | 0 mm | - | - | - |
| 1777622355 | 16.11° C | 50% | 1027.8 hPa | 0 mm | - | - | - |
| 1777621755 | 15.56° C | 53% | 1027.8 hPa | 0 mm | - | - | - |
| 1777621155 | 15.56° C | 52% | 1027.9 hPa | 0 mm | - | - | - |
| 1777620555 | 15° C | 55% | 1027.9 hPa | 0 mm | - | - | - |
| 1777619955 | 15° C | 57% | 1027.9 hPa | 0 mm | - | - | - |
| 1777619355 | 13.89° C | 56% | 1027.9 hPa | 0 mm | - | - | - |
| 1777618755 | 13.89° C | 55% | 1027.9 hPa | 0 mm | - | - | - |
| 1777618155 | 13.89° C | 57% | 1028 hPa | 0 mm | - | - | - |
| 1777617555 | 15° C | 55% | 1028 hPa | 0 mm | - | - | - |
| 1777616955 | 14.44° C | 62% | 1027.8 hPa | 0 mm | - | - | - |
| 1777616355 | 13.89° C | 58% | 1027.8 hPa | 0 mm | - | - | - |
| 1777615755 | 12.78° C | 63% | 1027.9 hPa | 0 mm | - | - | - |
| 1777615155 | 12.22° C | 62% | 1027.9 hPa | 0 mm | - | - | - |
| 1777614555 | 11.11° C | 72% | 1027.9 hPa | 0 mm | - | - | - |
| 1777613955 | 10° C | 77% | 1027.8 hPa | 0 mm | - | - | - |
| 1777613355 | 10° C | 77% | 1027.7 hPa | 0 mm | - | - | - |
| 1777612755 | 8.89° C | 83% | 1027.5 hPa | 0 mm | - | - | - |
| 1777612155 | 6.67° C | 86% | 1027.5 hPa | 0 mm | - | - | - |
| 1777611555 | 5° C | 87% | 1027.4 hPa | 0 mm | - | - | - |
| 1777610955 | 4.44° C | 86% | 1027.4 hPa | 0 mm | - | - | - |
| 1777610355 | 3.89° C | 87% | 1027.4 hPa | 0 mm | - | - | - |
* Rain latest hour (hover to see other rain measurements)
** Current wind speed in m/s (hover to see current wind gust speed)